Weather History for LGKL - November, 2012

Change the Weather History Date:

Tuesday, November 13, 2012

  Actual Average Record
Temperature  
Mean Temperature 58 °F -  
Max Temperature 69 °F 66 °F 78 °F (2004)
Min Temperature 46 °F 48 °F 44 °F (1996)
Degree Days  
Heating Degree Days 8    
Growing Degree Days 8 (Base 50)    
Moisture  
Dew Point 48 °F    
Average Humidity 70    
Maximum Humidity 94    
Minimum Humidity 40    
Precipitation  
Precipitation 0.00 in 0.19 in - ()
Sea Level Pressure  
Sea Level Pressure 30.15 in    
Wind  
Wind Speed 4 mph ()    
Max Wind Speed 7 mph    
Max Gust Speed -    
Visibility 6.2 miles    
Events      
Averages and records for this station are not official NWS values.
T = Trace of Precipitation, MM = Missing Value Source: Averaged Metar Reports

Daily Weather History Graph

Daily Weather History Graph

Search for Another Location

Airport or City:

Trip Planner

Search our weather history database for the weather conditions in past years. The results will help you decide how hot, cold, wet, or windy it might be!

Date:

Astronomy

Nov. 13, 2012 Rise Set
Actual Time 7:08 AM EET 5:23 PM EET
Civil Twilight 6:41 AM EET 5:50 PM EET
Nautical Twilight 6:09 AM EET 6:22 PM EET
Astronomical Twilight 5:39 AM EET 6:52 PM EET
Moon 6:24 AM EET (11/13) 5:01 PM EET (11/13)
Length of Visible Light 11h 09m
Length of Day
10h 14m
Waning Crescent, 0% of the Moon is Illuminated
Nov 13
Waning Crescent
Nov 14
New
Nov 20
First Quarter
Nov 28
Full
Dec 6
Last Quarter

Hourly Weather History & Observations

Time (EET) Temp. Windchill Dew Point Humidity Pressure Visibility Wind Dir Wind Speed Gust Speed Precip Events Conditions
1:50 AM 48.2 °F - 44.6 °F 87% 30.21 in - North 4.6 mph - N/A   Clear
4:50 AM 46.4 °F 44.3 °F 42.8 °F 87% 30.18 in - North 4.6 mph - N/A   Clear
5:20 AM 46.4 °F 44.3 °F 44.6 °F 93% 30.15 in - NNW 4.6 mph - N/A   Clear
5:50 AM 48.2 °F - 42.8 °F 82% 30.18 in - NNW 6.9 mph - N/A   Clear
6:20 AM 48.2 °F - 44.6 °F 87% 30.18 in 6.2 mi North 4.6 mph - N/A   Partly Cloudy
6:50 AM 48.2 °F - 44.6 °F 87% 30.18 in 6.2 mi Calm Calm - N/A   Partly Cloudy
7:20 AM 46.4 °F 44.3 °F 42.8 °F 87% 30.18 in 6.2 mi NW 4.6 mph - N/A   Partly Cloudy
7:50 AM 48.2 °F - 44.6 °F 87% 30.18 in 6.2 mi NNW 4.6 mph - N/A   Partly Cloudy
8:20 AM 48.2 °F - 44.6 °F 87% 30.18 in 6.2 mi WNW 4.6 mph - N/A   Partly Cloudy
8:50 AM 51.8 °F - 46.4 °F 82% 30.18 in 6.2 mi NW 4.6 mph - N/A   Partly Cloudy
9:20 AM 57.2 °F - 48.2 °F 72% 30.18 in 6.2 mi NW 4.6 mph - N/A   Partly Cloudy
9:50 AM 60.8 °F - 48.2 °F 63% 30.18 in 6.2 mi NW 4.6 mph - N/A   Partly Cloudy
10:20 AM 64.4 °F - 48.2 °F 56% 30.21 in 6.2 mi NNW 4.6 mph - N/A   Partly Cloudy
10:50 AM 68.0 °F - 48.2 °F 49% 30.18 in 6.2 mi WNW 4.6 mph - N/A   Partly Cloudy
11:20 AM 69.8 °F - 50.0 °F 49% 30.18 in 6.2 mi SE 4.6 mph - N/A   Partly Cloudy
11:50 AM 69.8 °F - 48.2 °F 46% 30.18 in 6.2 mi Calm Calm - N/A   Partly Cloudy
12:20 PM 69.8 °F - 46.4 °F 43% 30.15 in 6.2 mi SW 4.6 mph - N/A   Partly Cloudy
12:50 PM 69.8 °F - 46.4 °F 43% 30.15 in 6.2 mi South 5.8 mph - N/A   Partly Cloudy
1:20 PM 69.8 °F - 46.4 °F 43% 30.15 in 6.2 mi South 5.8 mph - N/A   Partly Cloudy
1:50 PM 69.8 °F - 44.6 °F 40% 30.15 in 6.2 mi South 5.8 mph - N/A   Partly Cloudy
2:50 PM 69.8 °F - 51.8 °F 53% 30.12 in 6.2 mi SSW 5.8 mph - N/A   Partly Cloudy
3:20 PM 69.8 °F - 50.0 °F 49% 30.12 in 6.2 mi SSW 5.8 mph - N/A   Partly Cloudy
3:50 PM 68.0 °F - 51.8 °F 56% 30.09 in 6.2 mi SW 4.6 mph - N/A   Partly Cloudy
4:20 PM 68.0 °F - 51.8 °F 56% 30.09 in 6.2 mi Calm Calm - N/A   Partly Cloudy
4:50 PM 66.2 °F - 51.8 °F 60% 30.09 in - Calm Calm - N/A   Clear
5:20 PM 62.6 °F - 51.8 °F 68% 30.09 in - Calm Calm - N/A   Clear
5:50 PM 59.0 °F - 51.8 °F 77% 30.09 in - Calm Calm - N/A   Clear
6:20 PM 57.2 °F - 51.8 °F 82% 30.12 in - Calm Calm - N/A   Clear
6:50 PM 55.4 °F - 51.8 °F 88% 30.12 in - Calm Calm - N/A   Clear
7:20 PM 53.6 °F - 50.0 °F 88% 30.12 in - NNW 4.6 mph - N/A   Clear
7:50 PM 53.6 °F - 50.0 °F 88% 30.12 in - NNW 4.6 mph - N/A   Clear
10:50 PM 50.0 °F - 48.2 °F 94% 30.12 in - WNW 4.6 mph - N/A   Clear